Weather History for Del Rio, TX

Change the Weather History Date:

Monday, May 27, 2013

  Actual Average Record
Temperature  
Mean Temperature 85 °F 81 °F  
Max Temperature 93 °F 92 °F 105 °F (2011)
Min Temperature 76 °F 71 °F 58 °F (1907)
Degree Days  
Heating Degree Days 0 0  
Month to date heating degree days 4 0  
Since 1 July heating degree days 1013 1375  
Cooling Degree Days 20 16  
Month to date cooling degree days 400 363  
Year to date cooling degree days 826 692  
Growing Degree Days 34 (Base 50)    
Moisture  
Dew Point 69 °F    
Average Humidity 64    
Maximum Humidity 87    
Minimum Humidity 41    
Precipitation  
Precipitation 0.00 in 0.10 in 6.53 in (2003)
Month to date precipitation 1.44 2.39  
Year to date precipitation 3.19 6.78  
Sea Level Pressure  
Sea Level Pressure 29.84 in    
Wind  
Wind Speed 14 mph (SE)    
Max Wind Speed 24 mph    
Max Gust Speed 36 mph    
Visibility 10 miles    
Events      
T = Trace of Precipitation, MM = Missing Value Source: NWS Daily Summary

Daily Weather History Graph

Daily Weather History Graph

Search for Another Location

Airport:

Trip Planner

Search our weather history database for the weather conditions in past years. The results will help you decide how hot, cold, wet, or windy it might be!

Date:

Astronomy

May. 27, 2013 Rise Set
Actual Time 6:45 AM CDT 8:36 PM CDT
Civil Twilight 6:19 AM CDT 9:02 PM CDT
Nautical Twilight 5:47 AM CDT 9:35 PM CDT
Astronomical Twilight 5:13 AM CDT 10:09 PM CDT
Moon 11:22 PM CDT 9:22 AM CDT
Length of Visible Light 14h 43m
Length of Day
13h 50m
Waning Gibbous, 91% of the Moon is Illuminated
May 27
Waning Gibbous
May 31
Last Quarter
Jun 8
New
Jun 16
First Quarter
Jun 23
Full

Hourly Weather History & Observations

Time (CDT) Temp. Heat Index Dew Point Humidity Pressure Visibility Wind Dir Wind Speed Gust Speed Precip Events Conditions
12:53 AM 78.1 °F - 70.0 °F 76% 29.91 in 10.0 mi ESE 12.7 mph - N/A   Clear
1:53 AM 77.0 °F - 71.1 °F 82% 29.89 in 10.0 mi ESE 9.2 mph 18.4 mph N/A   Clear
2:15 AM 77.0 °F - 71.6 °F 83% 29.93 in 10.0 mi ESE 13.8 mph 20.7 mph N/A   Mostly Cloudy
2:34 AM 77.0 °F - 71.6 °F 83% 29.93 in 10.0 mi ESE 12.7 mph - N/A   Scattered Clouds
2:53 AM 77.0 °F - 71.1 °F 82% 29.88 in 10.0 mi ESE 10.4 mph - N/A   Mostly Cloudy
3:53 AM 75.9 °F - 71.1 °F 85% 29.85 in 10.0 mi ESE 12.7 mph - N/A   Overcast
4:14 AM 77.0 °F - 71.6 °F 83% 29.90 in 10.0 mi ESE 13.8 mph 19.6 mph N/A   Overcast
4:42 AM 77.0 °F - 71.6 °F 83% 29.90 in 10.0 mi ESE 15.0 mph 24.2 mph N/A   Overcast
4:53 AM 77.0 °F - 71.1 °F 82% 29.85 in 10.0 mi SE 13.8 mph - N/A   Overcast
5:53 AM 75.9 °F - 71.1 °F 85% 29.85 in 10.0 mi ESE 11.5 mph - N/A   Overcast
6:53 AM 75.9 °F - 71.1 °F 85% 29.85 in 10.0 mi ESE 10.4 mph - N/A   Overcast
7:53 AM 75.9 °F - 71.1 °F 85% 29.87 in 9.0 mi ESE 10.4 mph - N/A   Overcast
8:53 AM 75.9 °F - 70.0 °F 82% 29.87 in 8.0 mi SE 13.8 mph - N/A   Overcast
9:45 AM 77.0 °F - 69.8 °F 78% 29.93 in 9.0 mi SE 13.8 mph 21.9 mph N/A   Overcast
9:53 AM 77.0 °F - 70.0 °F 79% 29.88 in 9.0 mi SE 15.0 mph - N/A   Overcast
10:53 AM 78.1 °F - 70.0 °F 76% 29.88 in 10.0 mi SE 12.7 mph 19.6 mph N/A   Overcast
11:53 AM 80.1 °F 82.9 °F 69.1 °F 69% 29.88 in 10.0 mi SE 13.8 mph 24.2 mph N/A   Overcast
12:34 PM 82.4 °F 86.3 °F 69.8 °F 66% 29.92 in 10.0 mi SE 12.7 mph 23.0 mph N/A   Overcast
12:44 PM 82.4 °F 86.3 °F 69.8 °F 66% 29.92 in 10.0 mi SE 12.7 mph - N/A   Overcast
12:53 PM 82.9 °F 86.5 °F 69.1 °F 63% 29.87 in 10.0 mi SE 13.8 mph - N/A   Overcast
1:03 PM 84.2 °F 88.4 °F 69.8 °F 62% 29.91 in 10.0 mi SE 17.3 mph 25.3 mph N/A   Overcast
1:53 PM 88.0 °F 91.4 °F 68.0 °F 51% 29.84 in 10.0 mi SE 16.1 mph 29.9 mph N/A   Scattered Clouds
2:53 PM 88.0 °F 90.7 °F 66.9 °F 49% 29.81 in 10.0 mi SE 15.0 mph 24.2 mph N/A   Mostly Cloudy
3:53 PM 90.0 °F 92.8 °F 66.9 °F 46% 29.78 in 10.0 mi SE 18.4 mph 26.5 mph N/A   Clear
4:53 PM 91.0 °F 94.3 °F 66.9 °F 45% 29.75 in 10.0 mi SE 20.7 mph 31.1 mph N/A   Clear
5:53 PM 93.0 °F 95.9 °F 66.0 °F 41% 29.73 in 10.0 mi ESE 19.6 mph 25.3 mph N/A   Clear
6:53 PM 91.0 °F 93.0 °F 64.9 °F 42% 29.71 in 10.0 mi SE 19.6 mph 25.3 mph N/A   Clear
7:53 PM 89.1 °F 91.0 °F 64.9 °F 45% 29.72 in 10.0 mi SE 12.7 mph - N/A   Clear
8:53 PM 88.0 °F 89.6 °F 64.9 °F 46% 29.71 in 10.0 mi SE 11.5 mph 19.6 mph N/A   Clear
9:53 PM 86.0 °F 88.2 °F 66.0 °F 51% 29.73 in 10.0 mi SE 11.5 mph - N/A   Clear
10:53 PM 84.9 °F 87.1 °F 66.0 °F 53% 29.76 in 10.0 mi SE 8.1 mph - N/A   Clear
11:53 PM 84.0 °F 87.8 °F 69.1 °F 61% 29.75 in 10.0 mi ESE 13.8 mph 20.7 mph N/A   Clear